| time (UTC) | temp F | wind direction | speed knots | gust knots | rain 1hr in | rain 24hr in | rain mn in | humidity % | barometer mb |
| 20260510073022 | 69 | 97 | 2.6 | 7.0 | 0.00 | 0.00 | 0.00 | 99 | 1011.9 |
| 20260510072522 | 69 | 97 | 1.7 | 2.6 | 0.00 | 0.00 | 0.00 | 99 | 1012.6 |
| 20260510072022 | 70 | 179 | 0.0 | 0.0 | 0.00 | 0.00 | 0.00 | 99 | 1013.1 |
| 20260510071522 | 69 | 178 | 0.0 | 0.0 | 0.00 | 0.00 | 0.00 | 99 | 1013.4 |
| 20260510071022 | 70 | 179 | 0.0 | 0.0 | 0.00 | 0.00 | 0.00 | 99 | 1013.3 |
| 20260510070522 | 69 | 178 | 0.0 | 0.0 | 0.00 | 0.00 | 0.00 | 99 | 1013.3 |
| 20260510070022 | 69 | 179 | 0.0 | 0.0 | 0.00 | 0.00 | 0.00 | 99 | 1013.1 |
| 20260510065522 | 69 | 178 | 0.0 | 0.0 | 0.00 | 0.00 | 0.00 | 99 | 1013.0 |
| 20260510065022 | 69 | 179 | 0.0 | 0.0 | 0.00 | 0.00 | 0.00 | 99 | 1012.9 |
| 20260510064522 | 69 | 178 | 0.0 | 0.0 | 0.00 | 0.00 | 0.00 | 99 | 1013.0 |
| 20260510064022 | 69 | 179 | 0.0 | 0.0 | 0.00 | 0.00 | 0.00 | 99 | 1013.0 |
| 20260510063522 | 69 | 178 | 0.0 | 0.0 | 0.00 | 0.00 | 0.00 | 99 | 1013.1 |
| 20260510063022 | 69 | 179 | 0.0 | 0.0 | 0.00 | 0.00 | 0.00 | 99 | 1013.3 |
| 20260510062522 | 69 | 178 | 0.0 | 0.0 | 0.00 | 0.00 | 0.00 | 99 | 1013.4 |
| 20260510062022 | 69 | 179 | 0.0 | 0.0 | 0.00 | 0.00 | 0.00 | 99 | 1013.4 |
| 20260510061522 | 69 | 178 | 0.0 | 0.0 | 0.00 | 0.00 | 0.00 | 99 | 1013.4 |
| 20260510061022 | 69 | 179 | 0.0 | 0.0 | 0.00 | 0.00 | 0.00 | 99 | 1013.3 |
| 20260510060522 | 69 | 178 | 0.0 | 0.0 | 0.00 | 0.00 | 0.00 | 99 | 1013.4 |
| 20260510060022 | 69 | 179 | 0.0 | 0.0 | 0.00 | 0.00 | 0.00 | 99 | 1013.5 |
| 20260510055522 | 69 | 178 | 0.0 | 0.0 | 0.00 | 0.00 | 0.00 | 99 | 1013.7 |
| 20260510055022 | 69 | 179 | 0.0 | 0.0 | 0.00 | 0.00 | 0.00 | 99 | 1013.7 |
| 20260510054522 | 69 | 178 | 0.0 | 0.0 | 0.00 | 0.00 | 0.00 | 99 | 1013.7 |
| 20260510054022 | 69 | 179 | 0.0 | 0.0 | 0.00 | 0.00 | 0.00 | 99 | 1013.8 |
| 20260510053522 | 69 | 178 | 0.0 | 0.0 | 0.00 | 0.00 | 0.00 | 99 | 1013.9 |
| 20260510053022 | 69 | 179 | 0.0 | 0.0 | 0.00 | 0.00 | 0.00 | 99 | 1013.9 |
| 20260510052522 | 69 | 178 | 0.0 | 0.0 | 0.00 | 0.00 | 0.00 | 99 | 1014.0 |
| 20260510052022 | 69 | 179 | 0.0 | 0.0 | 0.00 | 0.00 | 0.00 | 99 | 1014.1 |
| 20260510051522 | 69 | 178 | 0.0 | 0.0 | 0.00 | 0.00 | 0.00 | 99 | 1014.1 |
| 20260510051022 | 69 | 179 | 0.0 | 0.0 | 0.00 | 0.00 | 0.00 | 99 | 1014.1 |
| 20260510050521 | 69 | 178 | 0.0 | 0.0 | 0.00 | 0.00 | 0.00 | 99 | 1014.2 |
| 20260510050021 | 69 | 179 | 0.0 | 0.0 | 0.00 | 0.00 | 0.00 | 99 | 1014.2 |
| 20260510045521 | 69 | 178 | 0.0 | 0.0 | 0.00 | 0.00 | 0.00 | 99 | 1014.3 |
| 20260510045021 | 69 | 179 | 0.0 | 0.0 | 0.00 | 0.00 | 0.00 | 99 | 1014.3 |
| 20260510044521 | 69 | 178 | 0.0 | 0.0 | 0.00 | 0.00 | 0.00 | 99 | 1014.4 |
| 20260510044021 | 70 | 179 | 0.0 | 0.0 | 0.00 | 0.00 | 0.00 | 99 | 1014.4 |
| 20260510043521 | 69 | 178 | 0.0 | 0.0 | 0.00 | 0.00 | 0.00 | 99 | 1014.3 |
| 20260510043021 | 69 | 179 | 0.0 | 0.0 | 0.00 | 0.00 | 0.00 | 99 | 1014.2 |
| 20260510042521 | 69 | 178 | 0.0 | 0.0 | 0.00 | 0.00 | 0.00 | 99 | 1014.2 |
| 20260510042021 | 69 | 179 | 0.0 | 0.0 | 0.00 | 0.00 | 0.00 | 99 | 1014.3 |
| 20260510041521 | 69 | 178 | 0.0 | 0.0 | 0.00 | 0.00 | 0.00 | 99 | 1014.3 |
| 20260510041021 | 69 | 179 | 0.0 | 0.0 | 0.00 | 0.00 | 0.00 | 99 | 1014.3 |
| 20260510040521 | 69 | 178 | 0.0 | 0.0 | 0.00 | 0.00 | 0.00 | 99 | 1014.2 |
| 20260510040021 | 69 | 179 | 0.0 | 0.0 | 0.00 | 0.00 | 0.00 | 99 | 1014.1 |
| 20260510035521 | 69 | 178 | 0.0 | 0.0 | 0.00 | 0.00 | 0.22 | 99 | 1014.2 |
| 20260510035021 | 69 | 179 | 0.0 | 0.0 | 0.00 | 0.00 | 0.22 | 99 | 1014.1 |
| 20260510034521 | 69 | 178 | 0.0 | 2.6 | 0.00 | 0.00 | 0.22 | 99 | 1014.3 |
| 20260510034021 | 69 | 162 | 1.7 | 3.5 | 0.00 | 0.00 | 0.22 | 99 | 1014.3 |
| 20260510033521 | 69 | 160 | 0.0 | 3.5 | 0.00 | 0.00 | 0.22 | 98 | 1014.4 |
| 20260510033021 | 69 | 179 | 0.9 | 4.3 | 0.00 | 0.00 | 0.22 | 98 | 1014.4 |
| 20260510032521 | 69 | 209 | 2.6 | 2.6 | 0.00 | 0.00 | 0.22 | 98 | 1014.3 |
| 20260510032021 | 69 | 309 | 0.0 | 0.0 | 0.00 | 0.00 | 0.22 | 98 | 1014.2 |
| 20260510031521 | 69 | 307 | 0.0 | 0.0 | 0.00 | 0.00 | 0.22 | 98 | 1014.2 |
| 20260510031021 | 69 | 309 | 0.0 | 1.7 | 0.00 | 0.00 | 0.22 | 98 | 1014.0 |
| 20260510030521 | 69 | 295 | 0.9 | 4.3 | 0.00 | 0.00 | 0.22 | 98 | 1014.0 |
| 20260510030021 | 70 | 317 | 1.7 | 4.3 | 0.00 | 0.00 | 0.22 | 98 | 1013.9 |
| 20260510025521 | 69 | 338 | 1.7 | 2.6 | 0.00 | 0.00 | 0.22 | 98 | 1013.9 |
| 20260510025021 | 69 | 240 | 0.0 | 0.0 | 0.00 | 0.00 | 0.22 | 98 | 1014.0 |
| 20260510024521 | 70 | 239 | 0.0 | 0.0 | 0.00 | 0.00 | 0.22 | 98 | 1013.9 |
| 20260510024021 | 70 | 240 | 0.0 | 0.0 | 0.00 | 0.00 | 0.22 | 98 | 1013.9 |
| 20260510023521 | 70 | 239 | 0.0 | 1.7 | 0.00 | 0.00 | 0.22 | 98 | 1013.8 |
| 20260510023021 | 70 | 310 | 0.0 | 0.0 | 0.00 | 0.00 | 0.22 | 98 | 1013.6 |
| 20260510022521 | 70 | 309 | 0.0 | 0.0 | 0.00 | 0.00 | 0.22 | 98 | 1013.4 |
| 20260510022021 | 70 | 310 | 0.0 | 1.7 | 0.00 | 0.00 | 0.22 | 98 | 1013.3 |
| 20260510021521 | 70 | 281 | 0.0 | 1.7 | 0.00 | 0.00 | 0.22 | 98 | 1013.5 |
| 20260510021021 | 70 | 238 | 0.9 | 0.0 | 0.00 | 0.00 | 0.22 | 98 | 1013.3 |
| 20260510020521 | 70 | 237 | 0.0 | 1.7 | 0.00 | 0.00 | 0.22 | 98 | 1013.3 |
| 20260510020021 | 70 | 271 | 0.9 | 1.7 | 0.00 | 0.00 | 0.22 | 98 | 1013.4 |
| 20260510015521 | 70 | 265 | 1.7 | 4.3 | 0.00 | 0.00 | 0.22 | 98 | 1013.4 |
| 20260510015021 | 70 | 297 | 1.7 | 3.5 | 0.00 | 0.00 | 0.22 | 98 | 1013.5 |
| 20260510014521 | 70 | 251 | 1.7 | 6.1 | 0.00 | 0.00 | 0.22 | 98 | 1013.4 |
| 20260510014021 | 70 | 256 | 0.0 | 3.5 | 0.00 | 0.00 | 0.22 | 98 | 1013.5 |
| 20260510013521 | 70 | 281 | 0.0 | 2.6 | 0.00 | 0.00 | 0.22 | 98 | 1013.2 |
| 20260510013021 | 70 | 304 | 2.6 | 2.6 | 0.00 | 0.00 | 0.22 | 98 | 1013.1 |
| 20260510012521 | 70 | 261 | 0.0 | 2.6 | 0.00 | 0.00 | 0.22 | 98 | 1013.1 |
| 20260510012021 | 70 | 216 | 0.0 | 1.7 | 0.00 | 0.00 | 0.22 | 98 | 1012.8 |
| 20260510011520 | 70 | 174 | 0.0 | 2.6 | 0.00 | 0.00 | 0.22 | 98 | 1012.8 |
| 20260510011021 | 70 | 193 | 0.0 | 3.5 | 0.00 | 0.00 | 0.22 | 98 | 1012.9 |
| 20260510010520 | 70 | 241 | 0.0 | 3.5 | 0.00 | 0.00 | 0.22 | 98 | 1013.0 |
| 20260510010020 | 70 | 256 | 1.7 | 2.6 | 0.00 | 0.00 | 0.22 | 98 | 1012.8 |
| 20260510005520 | 70 | 234 | 0.9 | 3.5 | 0.00 | 0.00 | 0.22 | 98 | 1012.7 |
| 20260510005020 | 70 | 159 | 0.9 | 1.7 | 0.00 | 0.00 | 0.22 | 98 | 1012.6 |
| 20260510004520 | 70 | 185 | 0.9 | 2.6 | 0.00 | 0.00 | 0.22 | 98 | 1012.5 |
| 20260510004020 | 70 | 151 | 0.9 | 3.5 | 0.00 | 0.00 | 0.22 | 98 | 1012.6 |
| 20260510003520 | 71 | 172 | 2.6 | 2.6 | 0.00 | 0.00 | 0.22 | 98 | 1012.6 |
| 20260510003020 | 71 | 141 | 0.0 | 2.6 | 0.00 | 0.00 | 0.22 | 98 | 1012.7 |
| 20260510002520 | 71 | 227 | 0.0 | 4.3 | 0.00 | 0.00 | 0.22 | 98 | 1012.8 |
| 20260510002020 | 71 | 234 | 0.0 | 4.3 | 0.00 | 0.00 | 0.22 | 98 | 1012.9 |
| 20260510001520 | 71 | 225 | 1.7 | 3.5 | 0.00 | 0.00 | 0.22 | 98 | 1013.2 |
| 20260510001020 | 71 | 216 | 1.7 | 3.5 | 0.00 | 0.00 | 0.22 | 98 | 1013.1 |
| 20260510000520 | 71 | 279 | 0.9 | 4.3 | 0.00 | 0.00 | 0.22 | 98 | 1013.1 |
| 20260510000020 | 71 | 244 | 2.6 | 4.3 | 0.00 | 0.00 | 0.22 | 98 | 1013.2 |
| 20260509235520 | 71 | 268 | 0.9 | 3.5 | 0.00 | 0.00 | 0.22 | 98 | 1013.2 |
| 20260509235020 | 71 | 278 | 0.9 | 2.6 | 0.00 | 0.00 | 0.22 | 98 | 1013.1 |
| 20260509234520 | 71 | 204 | 0.0 | 1.7 | 0.00 | 0.00 | 0.22 | 98 | 1013.1 |
| 20260509234020 | 71 | 235 | 0.0 | 3.5 | 0.00 | 0.00 | 0.22 | 98 | 1013.0 |
| 20260509233520 | 71 | 259 | 0.9 | 2.6 | 0.00 | 0.00 | 0.22 | 98 | 1013.0 |
| 20260509233020 | 71 | 88 | 0.0 | 0.0 | 0.00 | 0.00 | 0.22 | 97 | 1012.9 |
| 20260509232520 | 71 | 88 | 0.0 | 0.0 | 0.00 | 0.00 | 0.22 | 97 | 1012.9 |
| 20260509232020 | 71 | 88 | 0.0 | 0.0 | 0.00 | 0.00 | 0.22 | 97 | 1012.9 |
| 20260509231520 | 71 | 88 | 0.0 | 0.0 | 0.00 | 0.00 | 0.22 | 97 | 1012.9 |
| 20260509231020 | 71 | 88 | 0.0 | 0.0 | 0.00 | 0.00 | 0.22 | 97 | 1013.0 |
| 20260509230520 | 71 | 88 | 0.0 | 0.0 | 0.00 | 0.00 | 0.22 | 97 | 1012.9 |
| 20260509230020 | 71 | 88 | 0.0 | 0.0 | 0.00 | 0.00 | 0.22 | 97 | 1012.8 |
| 20260509225520 | 71 | 88 | 0.0 | 0.0 | 0.00 | 0.00 | 0.22 | 97 | 1012.9 |
| 20260509225020 | 71 | 88 | 0.0 | 0.0 | 0.00 | 0.00 | 0.22 | 97 | 1012.8 |
| 20260509224520 | 71 | 88 | 0.0 | 0.0 | 0.00 | 0.00 | 0.22 | 97 | 1012.8 |
| 20260509224020 | 71 | 88 | 0.0 | 0.0 | 0.00 | 0.00 | 0.22 | 97 | 1012.8 |
| 20260509223520 | 71 | 88 | 0.0 | 0.0 | 0.00 | 0.00 | 0.22 | 97 | 1012.7 |
| 20260509223020 | 71 | 88 | 0.0 | 0.0 | 0.00 | 0.00 | 0.22 | 97 | 1012.8 |
| 20260509222520 | 71 | 88 | 0.0 | 0.0 | 0.00 | 0.00 | 0.22 | 97 | 1012.7 |
| 20260509222020 | 71 | 88 | 0.0 | 3.5 | 0.00 | 0.00 | 0.22 | 97 | 1012.6 |
| 20260509221520 | 71 | 45 | 0.0 | 3.5 | 0.00 | 0.00 | 0.22 | 97 | 1012.6 |
| 20260509221020 | 71 | 80 | 1.7 | 5.2 | 0.00 | 0.00 | 0.22 | 97 | 1012.5 |
| 20260509220520 | 71 | 11 | 0.0 | 3.5 | 0.00 | 0.00 | 0.22 | 97 | 1012.6 |
| 20260509220020 | 71 | 69 | 2.6 | 3.5 | 0.00 | 0.00 | 0.22 | 97 | 1012.4 |
| 20260509215520 | 71 | 42 | 1.7 | 6.1 | 0.00 | 0.00 | 0.22 | 97 | 1012.5 |
| 20260509215020 | 71 | 12 | 0.0 | 0.0 | 0.00 | 0.00 | 0.22 | 97 | 1012.6 |
| 20260509214520 | 70 | 12 | 0.0 | 2.6 | 0.00 | 0.00 | 0.22 | 97 | 1012.5 |
| 20260509214020 | 70 | 19 | 2.6 | 5.2 | 0.00 | 0.00 | 0.22 | 97 | 1012.6 |
| 20260509213520 | 70 | 337 | 0.0 | 4.3 | 0.00 | 0.00 | 0.22 | 97 | 1012.6 |
| 20260509213020 | 70 | 360 | 2.6 | 5.2 | 0.00 | 0.00 | 0.22 | 97 | 1012.6 |
| 20260509212520 | 70 | 338 | 4.3 | 6.1 | 0.00 | 0.00 | 0.22 | 97 | 1012.6 |
| 20260509212020 | 70 | 360 | 1.7 | 5.2 | 0.00 | 0.00 | 0.22 | 97 | 1012.8 |
| 20260509211520 | 70 | 360 | 2.6 | 7.8 | 0.00 | 0.00 | 0.22 | 97 | 1012.8 |
| 20260509211019 | 70 | 358 | 3.5 | 7.8 | 0.01 | 0.00 | 0.22 | 97 | 1012.7 |
| 20260509210519 | 70 | 347 | 6.1 | 7.0 | 0.01 | 0.00 | 0.22 | 97 | 1012.7 |
| 20260509210019 | 70 | 23 | 3.5 | 7.8 | 0.03 | 0.00 | 0.22 | 97 | 1012.9 |
| 20260509205519 | 71 | 331 | 5.2 | 7.8 | 0.05 | 0.00 | 0.22 | 96 | 1013.0 |
| 20260509205019 | 71 | 5 | 0.9 | 8.7 | 0.06 | 0.00 | 0.22 | 96 | 1012.9 |
| 20260509204519 | 71 | 321 | 7.8 | 8.7 | 0.07 | 0.00 | 0.22 | 96 | 1013.1 |
| 20260509204019 | 71 | 331 | 0.0 | 6.1 | 0.07 | 0.00 | 0.22 | 96 | 1013.0 |
| 20260509203519 | 71 | 336 | 3.5 | 7.0 | 0.08 | 0.00 | 0.22 | 96 | 1013.0 |
| 20260509203019 | 71 | 337 | 3.5 | 7.0 | 0.09 | 0.00 | 0.22 | 96 | 1013.1 |
| 20260509202519 | 71 | 320 | 5.2 | 9.6 | 0.09 | 0.00 | 0.22 | 96 | 1013.0 |
| 20260509202019 | 71 | 358 | 2.6 | 9.6 | 0.11 | 0.00 | 0.22 | 96 | 1013.0 |
| 20260509201519 | 71 | 312 | 5.2 | 9.6 | 0.12 | 0.00 | 0.21 | 95 | 1012.9 |
| 20260509201019 | 71 | 345 | 3.5 | 13.0 | 0.12 | 0.00 | 0.21 | 95 | 1012.9 |
| 20260509200519 | 71 | 319 | 8.7 | 13.0 | 0.12 | 0.00 | 0.21 | 94 | 1012.8 |
| 20260509200019 | 72 | 350 | 7.0 | 13.0 | 0.10 | 0.00 | 0.19 | 94 | 1012.8 |
| 20260509195519 | 72 | 327 | 7.8 | 13.0 | 0.08 | 0.00 | 0.17 | 92 | 1012.7 |
| 20260509195019 | 72 | 347 | 7.0 | 11.3 | 0.07 | 0.00 | 0.16 | 90 | 1012.9 |
| 20260509194519 | 73 | 314 | 4.3 | 11.3 | 0.06 | 0.00 | 0.15 | 89 | 1013.1 |
| 20260509194019 | 74 | 299 | 8.7 | 13.0 | 0.06 | 0.00 | 0.15 | 87 | 1012.9 |
| 20260509193519 | 75 | 344 | 6.1 | 13.0 | 0.05 | 0.00 | 0.14 | 84 | 1012.6 |
| 20260509193019 | 76 | 330 | 6.1 | 3.5 | 0.04 | 0.00 | 0.13 | 83 | 1012.7 |
| 20260509192519 | 77 | 245 | 0.0 | 3.5 | 0.04 | 0.00 | 0.13 | 81 | 1012.5 |
| 20260509192019 | 77 | 255 | 3.5 | 5.2 | 0.02 | 0.00 | 0.11 | 80 | 1012.6 |
| 20260509191519 | 77 | 255 | 2.6 | 5.2 | 0.00 | 0.00 | 0.09 | 78 | 1012.6 |
| 20260509191019 | 77 | 270 | 1.7 | 7.0 | 0.00 | 0.00 | 0.09 | 77 | 1012.4 |
| 20260509190519 | 77 | 214 | 4.3 | 7.0 | 0.00 | 0.00 | 0.09 | 76 | 1012.4 |
| 20260509190019 | 78 | 241 | 5.2 | 7.0 | 0.00 | 0.00 | 0.09 | 75 | 1012.3 |
| 20260509185519 | 78 | 232 | 2.6 | 7.0 | 0.00 | 0.00 | 0.09 | 75 | 1012.3 |
| 20260509185019 | 78 | 226 | 3.5 | 7.0 | 0.00 | 0.00 | 0.09 | 74 | 1012.2 |
| 20260509184519 | 78 | 264 | 4.3 | 7.0 | 0.00 | 0.00 | 0.09 | 75 | 1012.4 |
| 20260509184019 | 78 | 275 | 3.5 | 7.8 | 0.00 | 0.00 | 0.09 | 75 | 1012.4 |
| 20260509183519 | 78 | 282 | 4.3 | 7.8 | 0.00 | 0.00 | 0.09 | 75 | 1012.6 |
| 20260509183019 | 78 | 188 | 0.9 | 7.8 | 0.00 | 0.00 | 0.09 | 75 | 1012.7 |
| 20260509182519 | 78 | 242 | 3.5 | 7.8 | 0.00 | 0.00 | 0.09 | 74 | 1012.6 |
| 20260509182019 | 78 | 239 | 6.1 | 10.4 | 0.00 | 0.00 | 0.09 | 73 | 1012.5 |
| 20260509181519 | 79 | 259 | 5.2 | 10.4 | 0.00 | 0.00 | 0.09 | 72 | 1012.6 |
| 20260509181019 | 79 | 264 | 5.2 | 8.7 | 0.00 | 0.00 | 0.09 | 71 | 1012.6 |
| 20260509180519 | 79 | 224 | 3.5 | 8.7 | 0.00 | 0.00 | 0.09 | 71 | 1012.6 |
| 20260509180019 | 80 | 235 | 2.6 | 7.0 | 0.00 | 0.00 | 0.09 | 71 | 1012.6 |
| 20260509175519 | 79 | 227 | 0.9 | 6.1 | 0.00 | 0.00 | 0.09 | 72 | 1012.7 |
| 20260509175019 | 79 | 193 | 1.7 | 10.4 | 0.00 | 0.00 | 0.09 | 71 | 1012.8 |
| 20260509174519 | 80 | 187 | 6.1 | 8.7 | 0.00 | 0.00 | 0.09 | 70 | 1012.8 |
| 20260509174019 | 80 | 218 | 5.2 | 11.3 | 0.00 | 0.00 | 0.09 | 71 | 1012.7 |
| 20260509173519 | 79 | 168 | 1.7 | 7.0 | 0.00 | 0.00 | 0.09 | 72 | 1012.8 |
| 20260509173019 | 79 | 194 | 6.1 | 7.0 | 0.00 | 0.00 | 0.09 | 73 | 1012.7 |
| 20260509172519 | 79 | 204 | 1.7 | 7.8 | 0.00 | 0.00 | 0.09 | 72 | 1012.8 |
| 20260509172019 | 78 | 248 | 3.5 | 7.8 | 0.00 | 0.00 | 0.09 | 74 | 1012.9 |
| 20260509171519 | 78 | 149 | 3.5 | 7.8 | 0.00 | 0.00 | 0.09 | 74 | 1012.9 |
| 20260509171019 | 78 | 207 | 3.5 | 9.6 | 0.00 | 0.00 | 0.09 | 74 | 1012.9 |
| 20260509170518 | 78 | 244 | 4.3 | 7.8 | 0.00 | 0.00 | 0.09 | 74 | 1013.0 |
| 20260509170018 | 78 | 217 | 1.7 | 6.1 | 0.00 | 0.00 | 0.09 | 73 | 1013.1 |
| 20260509165518 | 78 | 224 | 5.2 | 7.8 | 0.00 | 0.00 | 0.09 | 75 | 1013.1 |
| 20260509165018 | 77 | 268 | 3.5 | 6.1 | 0.00 | 0.00 | 0.09 | 75 | 1013.2 |
| 20260509164518 | 77 | 153 | 3.5 | 7.0 | 0.00 | 0.00 | 0.09 | 74 | 1013.2 |
| 20260509164018 | 77 | 193 | 5.2 | 7.8 | 0.00 | 0.00 | 0.09 | 73 | 1013.2 |
| 20260509163518 | 77 | 203 | 5.2 | 7.8 | 0.00 | 0.00 | 0.09 | 75 | 1013.3 |
| 20260509163018 | 77 | 211 | 1.7 | 5.2 | 0.00 | 0.00 | 0.09 | 74 | 1013.2 |
| 20260509162518 | 77 | 124 | 3.5 | 6.1 | 0.00 | 0.00 | 0.09 | 74 | 1013.3 |
| 20260509162018 | 77 | 220 | 3.5 | 6.1 | 0.00 | 0.00 | 0.09 | 75 | 1013.4 |
| 20260509161518 | 77 | 139 | 1.7 | 4.3 | 0.00 | 0.00 | 0.09 | 75 | 1013.4 |
| 20260509161018 | 76 | 155 | 0.9 | 4.3 | 0.00 | 0.00 | 0.09 | 76 | 1013.3 |
| 20260509160518 | 76 | 55 | 3.5 | 5.2 | 0.00 | 0.00 | 0.09 | 76 | 1013.2 |
| 20260509160018 | 75 | 230 | 1.7 | 5.2 | 0.00 | 0.00 | 0.09 | 77 | 1013.1 |
| 20260509155518 | 75 | 100 | 2.6 | 5.2 | 0.00 | 0.00 | 0.09 | 77 | 1012.9 |
| 20260509155018 | 75 | 128 | 3.5 | 5.2 | 0.00 | 0.00 | 0.09 | 78 | 1012.7 |
| 20260509154518 | 75 | 134 | 0.9 | 2.6 | 0.00 | 0.00 | 0.09 | 79 | 1012.8 |
| 20260509154018 | 75 | 117 | 0.0 | 2.6 | 0.00 | 0.00 | 0.09 | 79 | 1013.0 |
| 20260509153518 | 74 | 45 | 2.6 | 2.6 | 0.00 | 0.00 | 0.09 | 79 | 1013.1 |
| 20260509153018 | 74 | 310 | 0.0 | 2.6 | 0.00 | 0.00 | 0.09 | 80 | 1013.5 |
| 20260509152518 | 74 | 316 | 0.0 | 4.3 | 0.00 | 0.00 | 0.09 | 81 | 1013.7 |
| 20260509152018 | 73 | 354 | 0.9 | 4.3 | 0.00 | 0.00 | 0.09 | 81 | 1013.7 |
| 20260509151518 | 73 | 286 | 0.0 | 4.3 | 0.00 | 0.00 | 0.09 | 82 | 1013.6 |
| 20260509151018 | 73 | 337 | 0.0 | 4.3 | 0.00 | 0.00 | 0.09 | 82 | 1013.8 |
| 20260509150518 | 73 | 329 | 3.5 | 7.0 | 0.00 | 0.00 | 0.09 | 83 | 1013.9 |
| 20260509150018 | 73 | 360 | 1.7 | 7.0 | 0.00 | 0.00 | 0.09 | 83 | 1014.2 |
| 20260509145518 | 73 | 315 | 3.5 | 7.0 | 0.00 | 0.00 | 0.09 | 83 | 1014.3 |
| 20260509145018 | 73 | 324 | 5.2 | 7.0 | 0.00 | 0.00 | 0.09 | 84 | 1014.2 |
| 20260509144518 | 72 | 331 | 3.5 | 7.0 | 0.00 | 0.00 | 0.09 | 84 | 1014.1 |
| 20260509144018 | 72 | 320 | 2.6 | 7.0 | 0.00 | 0.00 | 0.09 | 85 | 1014.1 |
| 20260509143518 | 73 | 323 | 5.2 | 4.3 | 0.00 | 0.00 | 0.09 | 86 | 1014.0 |
| 20260509143018 | 72 | 19 | 0.9 | 4.3 | 0.00 | 0.00 | 0.09 | 87 | 1013.8 |
| 20260509142518 | 72 | 355 | 2.6 | 2.6 | 0.00 | 0.00 | 0.09 | 87 | 1013.8 |
| 20260509142018 | 72 | 354 | 0.0 | 4.3 | 0.00 | 0.00 | 0.09 | 89 | 1013.7 |
| 20260509141518 | 72 | 358 | 1.7 | 3.5 | 0.00 | 0.00 | 0.09 | 90 | 1013.7 |
| 20260509141018 | 71 | 360 | 1.7 | 4.3 | 0.00 | 0.00 | 0.09 | 93 | 1013.7 |
| 20260509140518 | 71 | 7 | 0.9 | 5.2 | 0.00 | 0.00 | 0.09 | 93 | 1013.7 |
| 20260509140018 | 71 | 323 | 3.5 | 4.3 | 0.00 | 0.00 | 0.09 | 94 | 1013.8 |
| 20260509135518 | 71 | 319 | 3.5 | 4.3 | 0.00 | 0.00 | 0.09 | 96 | 1013.7 |
| 20260509135018 | 71 | 326 | 0.9 | 6.1 | 0.00 | 0.00 | 0.09 | 96 | 1013.6 |
| 20260509134518 | 71 | 351 | 0.0 | 5.2 | 0.00 | 0.00 | 0.09 | 97 | 1013.7 |
| 20260509134018 | 71 | 309 | 3.5 | 3.5 | 0.00 | 0.00 | 0.09 | 97 | 1013.7 |
| 20260509133518 | 70 | 254 | 1.7 | 3.5 | 0.00 | 0.00 | 0.09 | 97 | 1013.5 |
| 20260509133018 | 70 | 317 | 2.6 | 3.5 | 0.00 | 0.00 | 0.09 | 97 | 1013.4 |
| 20260509132518 | 70 | 319 | 2.6 | 0.0 | 0.00 | 0.00 | 0.09 | 97 | 1013.3 |
| 20260509132017 | 70 | 304 | 0.0 | 0.0 | 0.00 | 0.00 | 0.09 | 97 | 1013.1 |
| 20260509131518 | 70 | 303 | 0.0 | 0.0 | 0.00 | 0.00 | 0.09 | 98 | 1013.1 |
| 20260509131018 | 70 | 304 | 0.0 | 0.0 | 0.00 | 0.00 | 0.09 | 98 | 1013.2 |
| 20260509130517 | 69 | 303 | 0.0 | 1.7 | 0.00 | 0.00 | 0.09 | 98 | 1013.0 |
| 20260509130017 | 69 | 304 | 0.0 | 5.2 | 0.00 | 0.00 | 0.09 | 98 | 1013.1 |
| 20260509125517 | 69 | 306 | 0.9 | 6.1 | 0.00 | 0.00 | 0.09 | 98 | 1013.3 |
| 20260509125017 | 69 | 306 | 4.3 | 6.1 | 0.00 | 0.00 | 0.09 | 98 | 1013.2 |
| 20260509124517 | 69 | 324 | 3.5 | 0.0 | 0.00 | 0.00 | 0.09 | 98 | 1013.1 |
| 20260509124017 | 69 | 314 | 0.0 | 2.6 | 0.00 | 0.00 | 0.09 | 98 | 1013.0 |
| 20260509123517 | 69 | 313 | 0.0 | 0.0 | 0.00 | 0.00 | 0.09 | 98 | 1012.9 |
| 20260509123017 | 69 | 289 | 0.0 | 0.0 | 0.00 | 0.00 | 0.09 | 98 | 1012.8 |
| 20260509122517 | 69 | 288 | 0.0 | 2.6 | 0.00 | 0.00 | 0.09 | 99 | 1012.9 |
| 20260509122017 | 69 | 289 | 0.0 | 3.5 | 0.00 | 0.00 | 0.09 | 99 | 1013.0 |
| 20260509121517 | 68 | 358 | 0.9 | 3.5 | 0.00 | 0.00 | 0.09 | 99 | 1013.1 |
| 20260509121017 | 68 | 338 | 2.6 | 3.5 | 0.00 | 0.00 | 0.09 | 99 | 1013.0 |
| 20260509120517 | 68 | 317 | 1.7 | 3.5 | 0.00 | 0.00 | 0.09 | 99 | 1013.0 |
| 20260509120017 | 68 | 331 | 3.5 | 3.5 | 0.00 | 0.00 | 0.09 | 99 | 1013.0 |
| 20260509115517 | 68 | 320 | 2.6 | 4.3 | 0.00 | 0.00 | 0.09 | 99 | 1012.9 |
| 20260509115017 | 68 | 352 | 0.9 | 3.5 | 0.00 | 0.00 | 0.09 | 99 | 1012.8 |
| 20260509114517 | 68 | 340 | 0.0 | 4.3 | 0.00 | 0.00 | 0.09 | 99 | 1012.7 |
| 20260509114017 | 67 | 302 | 0.9 | 3.5 | 0.00 | 0.00 | 0.09 | 99 | 1012.7 |
| 20260509113517 | 67 | 351 | 0.0 | 4.3 | 0.00 | 0.00 | 0.09 | 99 | 1012.6 |
| 20260509113017 | 67 | 327 | 2.6 | 4.3 | 0.00 | 0.00 | 0.09 | 99 | 1012.8 |
| 20260509112517 | 67 | 341 | 1.7 | 6.1 | 0.00 | 0.00 | 0.09 | 99 | 1012.7 |
| 20260509112017 | 67 | 306 | 2.6 | 4.3 | 0.00 | 0.00 | 0.09 | 99 | 1012.7 |
| 20260509111517 | 67 | 303 | 4.3 | 2.6 | 0.00 | 0.00 | 0.09 | 99 | 1012.7 |
| 20260509111017 | 67 | 320 | 0.0 | 4.3 | 0.00 | 0.00 | 0.09 | 99 | 1012.3 |
| 20260509110517 | 66 | 305 | 2.6 | 2.6 | 0.00 | 0.00 | 0.09 | 99 | 1012.3 |
| 20260509110017 | 67 | 302 | 1.7 | 2.6 | 0.00 | 0.00 | 0.09 | 99 | 1012.2 |
| 20260509105517 | 67 | 331 | 0.0 | 2.6 | 0.00 | 0.00 | 0.09 | 99 | 1012.1 |
| 20260509105017 | 67 | 352 | 1.7 | 3.5 | 0.00 | 0.00 | 0.09 | 99 | 1011.9 |
| 20260509104517 | 67 | 337 | 1.7 | 4.3 | 0.00 | 0.00 | 0.09 | 99 | 1011.8 |
| 20260509104017 | 67 | 328 | 0.9 | 6.1 | 0.00 | 0.00 | 0.09 | 99 | 1011.7 |
| 20260509103517 | 67 | 343 | 3.5 | 7.0 | 0.00 | 0.00 | 0.09 | 99 | 1011.7 |
| 20260509103017 | 67 | 344 | 5.2 | 4.3 | 0.00 | 0.00 | 0.09 | 99 | 1011.7 |
| 20260509102517 | 67 | 328 | 0.0 | 6.1 | 0.00 | 0.00 | 0.09 | 99 | 1011.7 |
| 20260509102017 | 67 | 299 | 0.9 | 7.0 | 0.00 | 0.00 | 0.09 | 99 | 1011.6 |
| 20260509101517 | 67 | 304 | 3.5 | 8.7 | 0.00 | 0.00 | 0.09 | 99 | 1011.8 |
| 20260509101017 | 67 | 343 | 2.6 | 6.1 | 0.00 | 0.00 | 0.09 | 99 | 1011.6 |
| 20260509100517 | 67 | 312 | 4.3 | 5.2 | 0.00 | 0.00 | 0.09 | 99 | 1011.3 |
| 20260509100017 | 67 | 227 | 1.7 | 7.0 | 0.00 | 0.00 | 0.09 | 99 | 1011.0 |
| 20260509095517 | 67 | 200 | 3.5 | 7.0 | 0.00 | 0.00 | 0.09 | 99 | 1011.0 |
| 20260509095017 | 67 | 210 | 0.0 | 6.1 | 0.00 | 0.00 | 0.09 | 99 | 1011.0 |
| 20260509094517 | 67 | 180 | 1.7 | 6.1 | 0.00 | 0.00 | 0.09 | 99 | 1011.0 |
| 20260509094017 | 67 | 228 | 5.2 | 9.6 | 0.00 | 0.00 | 0.09 | 99 | 1011.0 |
| 20260509093517 | 67 | 200 | 3.5 | 9.6 | 0.00 | 0.00 | 0.09 | 99 | 1010.8 |
| 20260509093017 | 67 | 192 | 4.3 | 10.4 | 0.00 | 0.00 | 0.09 | 99 | 1010.7 |
| 20260509092516 | 67 | 165 | 5.2 | 9.6 | 0.00 | 0.00 | 0.09 | 99 | 1010.5 |
| 20260509092016 | 67 | 152 | 4.3 | 8.7 | 0.00 | 0.00 | 0.09 | 99 | 1010.7 |
| 20260509091516 | 67 | 163 | 3.5 | 8.7 | 0.00 | 0.00 | 0.09 | 99 | 1011.0 |
| 20260509091016 | 67 | 207 | 3.5 | 12.2 | 0.00 | 0.00 | 0.09 | 99 | 1011.0 |
| 20260509090516 | 67 | 98 | 4.3 | 13.9 | 0.00 | 0.00 | 0.09 | 99 | 1010.7 |
| 20260509090016 | 67 | 177 | 5.2 | 11.3 | 0.00 | 0.00 | 0.09 | 99 | 1010.4 |
| 20260509085516 | 67 | 170 | 8.7 | 7.8 | 0.00 | 0.00 | 0.09 | 99 | 1010.6 |
| 20260509085016 | 67 | 168 | 6.1 | 4.3 | 0.00 | 0.00 | 0.09 | 99 | 1011.2 |
| 20260509084516 | 67 | 170 | 1.7 | 0.0 | 0.00 | 0.00 | 0.09 | 99 | 1011.7 |
| 20260509084016 | 67 | 289 | 0.0 | 3.5 | 0.00 | 0.00 | 0.09 | 99 | 1011.9 |
| 20260509083516 | 67 | 289 | 0.0 | 3.5 | 0.00 | 0.00 | 0.09 | 99 | 1012.1 |
| 20260509083016 | 67 | 300 | 2.6 | 2.6 | 0.00 | 0.00 | 0.09 | 99 | 1012.1 |
| 20260509082516 | 67 | 285 | 0.9 | 2.6 | 0.00 | 0.00 | 0.09 | 99 | 1012.3 |
| 20260509082016 | 67 | 278 | 0.0 | 5.2 | 0.00 | 0.00 | 0.09 | 99 | 1012.3 |
| 20260509081516 | 67 | 317 | 1.7 | 6.1 | 0.00 | 0.00 | 0.09 | 99 | 1012.2 |
| 20260509081016 | 67 | 307 | 1.7 | 3.5 | 0.00 | 0.00 | 0.09 | 99 | 1012.1 |
| 20260509080516 | 67 | 326 | 0.9 | 0.0 | 0.00 | 0.00 | 0.09 | 99 | 1012.0 |
| 20260509080016 | 67 | 216 | 0.0 | 3.5 | 0.00 | 0.00 | 0.09 | 99 | 1011.8 |
| 20260509075516 | 67 | 216 | 0.0 | 4.3 | 0.00 | 0.00 | 0.09 | 99 | 1011.8 |
| 20260509075016 | 67 | 247 | 1.7 | 6.1 | 0.00 | 0.00 | 0.09 | 99 | 1011.8 |
| 20260509074516 | 67 | 266 | 1.7 | 6.1 | 0.00 | 0.00 | 0.09 | 99 | 1011.8 |
| 20260509074016 | 67 | 210 | 6.1 | 7.8 | 0.00 | 0.00 | 0.09 | 98 | 1011.7 |
| 20260509073516 | 67 | 152 | 3.5 | 6.1 | 0.00 | 0.00 | 0.09 | 98 | 1011.8 |